Location: Unspecified
(33.6682°S, 0.0000°E)
Time: 11:28:39
(UTC+00:00)

deb Explorer IX - All Passes

Search period start: 16 June 2019 00:00
Search period end: 26 June 2019 00:00
Orbit: 537 x 1115 km, 38.8° (Epoch: 14 June)

Date Brightness Start Highest point End Pass type
(mag) Time Alt. Az. Time Alt. Az. Time Alt. Az.
16 Jun - 02:50:30 10° NNW 02:53:57 27° NE 02:57:34 10° E night (unlit)
16 Jun - 04:36:23 10° WNW 04:40:31 72° SSW 04:45:07 10° ESE visible
16 Jun - 06:23:32 10° WSW 06:27:49 44° S 06:32:45 10° ESE visible
16 Jun - 08:10:19 10° WSW 08:15:13 70° SSE 08:21:02 10° ENE daylight
16 Jun - 09:57:11 10° W 10:02:19 43° NNW 10:08:18 10° NE daylight
16 Jun - 11:47:20 10° WNW 11:49:06 11° NW 11:50:57 10° NNW daylight
17 Jun - 02:28:47 10° NNW 02:32:17 28° NNE 02:35:52 10° E night (unlit)
17 Jun - 04:14:46 10° WNW 04:18:52 70° SSW 04:23:20 10° ESE visible
17 Jun - 06:01:57 10° WSW 06:06:08 43° S 06:10:54 10° ESE visible
17 Jun - 07:48:43 10° WSW 07:53:29 70° SSE 07:59:06 10° ENE daylight
17 Jun - 09:35:34 10° W 09:40:31 41° NNW 09:46:17 10° NE daylight
17 Jun - 11:26:33 10° NW 11:27:16 10° NW 11:28:01 10° NNW daylight
18 Jun - 02:07:03 10° NNW 02:10:36 29° NNE 02:14:12 10° E night (unlit)
18 Jun - 03:53:08 10° W 03:57:12 68° SSW 04:01:34 10° ESE visible
18 Jun - 05:40:22 10° WSW 05:44:27 43° S 05:49:03 10° ESE visible
18 Jun - 07:27:08 10° WSW 07:31:45 71° SSE 07:37:11 10° ENE daylight
18 Jun - 09:13:59 10° W 09:18:44 39° NNW 09:24:16 10° NE daylight
19 Jun - 01:45:17 10° NNW 01:48:56 30° NNE 01:52:32 10° E night (unlit)
19 Jun - 03:31:30 10° W 03:35:33 66° SSW 03:39:48 10° ESE visible
19 Jun - 05:18:46 10° WSW 05:22:46 42° S 05:27:12 10° ESE visible
19 Jun - 07:05:31 10° WSW 07:10:02 71° SSE 07:15:17 10° ENE daylight
19 Jun - 08:52:23 10° W 08:56:58 37° NNW 09:02:15 10° NE daylight
20 Jun - 01:23:31 10° NNW 01:27:15 31° NNE 01:30:53 10° E night (unlit)
20 Jun - 03:09:50 10° W 03:13:54 64° SSW 03:18:05 10° ESE visible
20 Jun - 04:57:09 10° WSW 05:01:06 41° S 05:05:25 10° ESE visible
20 Jun - 06:43:55 10° WSW 06:48:19 72° SSE 06:53:24 10° ENE daylight
20 Jun - 08:30:48 10° W 08:35:12 35° NNW 08:40:15 10° NNE daylight
21 Jun - 01:01:43 10° NNW 01:05:34 33° NNE 01:09:15 10° E night (unlit)
21 Jun - 02:48:09 10° W 02:52:14 63° SSW 02:56:21 10° ESE night (unlit)
21 Jun - 04:35:32 10° WSW 04:39:26 40° S 04:43:37 10° ESE visible
21 Jun - 06:22:18 10° WSW 06:26:37 73° SSE 06:31:32 10° ENE visible
21 Jun - 08:09:14 10° W 08:13:27 33° NNW 08:18:16 10° NNE daylight
22 Jun - 00:39:53 10° NW 00:43:53 34° NNE 00:47:38 10° E night (unlit)
22 Jun - 02:26:27 10° W 02:30:34 62° SSW 02:34:38 10° ESE night (unlit)
22 Jun - 04:13:53 10° WSW 04:17:46 40° S 04:21:51 10° ESE visible
22 Jun - 06:00:41 10° WSW 06:04:55 74° SSE 06:09:41 10° ENE visible
22 Jun - 07:47:39 10° W 07:51:42 31° NNW 07:56:17 10° NNE daylight
23 Jun - 00:18:02 10° NW 00:22:11 36° NNE 00:26:01 10° E night (unlit)
23 Jun - 02:04:43 10° W 02:08:54 61° SSW 02:12:58 10° ESE night (unlit)
23 Jun - 03:52:13 10° WSW 03:56:06 40° S 04:00:06 10° ESE visible
23 Jun - 05:39:03 10° WSW 05:43:14 75° SSE 05:47:51 10° ENE visible
23 Jun - 07:26:05 10° W 07:29:58 29° NNW 07:34:19 10° NNE daylight
23 Jun - 23:56:09 10° NW 00:00:29 38° NNE 00:04:25 10° E night (unlit)
24 Jun - 01:42:58 10° W 01:47:14 60° SSW 01:51:17 10° ESE night (unlit)
24 Jun - 03:30:33 10° WSW 03:34:26 40° S 03:38:22 10° ESE visible
24 Jun - 05:17:24 10° WSW 05:21:32 77° SSE 05:26:02 10° ENE visible
24 Jun - 07:04:30 10° W 07:08:14 27° NNW 07:12:21 10° NNE daylight
24 Jun - 23:34:16 10° NW 23:38:46 40° NNE 23:42:48 10° E night (unlit)
25 Jun - 01:21:12 10° W 01:25:34 59° SSW 01:29:37 10° ESE night (unlit)
25 Jun - 03:08:51 10° WSW 03:12:46 40° S 03:16:40 10° ESE visible
25 Jun - 04:55:46 10° WSW 04:59:52 78° SSE 05:04:14 10° ENE visible
25 Jun - 06:42:56 10° W 06:46:31 26° NNW 06:50:24 10° NNE daylight
25 Jun - 23:12:20 10° NW 23:17:02 42° NNE 23:21:11 10° E night (unlit)
